LFKBLFKF

Guest
Details From LFKB - Bastia Poretta
To LFKF - Figari Sud Corse
Flight Number -
Tags generated
Created
Modified
Stats Distance 67 nm / 124 km
Max Altitude 6,300 ft / 1,920 m
Waypoints 3
Social Downloads 5
Likes 0
Share

Download

Looking for another format? Having issues loading an existing format? Contact us
Advertisement - Login to hide

Notes

Basic altitude profile: - Ascent Rate: 2500ft/min - Ascent Speed: 250kts - Cruise Altitude: 25000ft - Cruise Speed: 420kts - Descent Rate: 1500ft/min - Descent Speed: 250kts Options: - Use NATs: yes - Use PACOTS: yes - Use low airways: yes - Use high airways: yes

Route

LFKB SZA LFKF

ID Type Via Altitude (ft/m) Position (lat/lon) Dist (leg/tot) Name
O LFKB APT - 0 / 0 42.55251 / 9.48371 - / 0 nm Bastia Poretta
SZA VOR - 6,300 / 1,920 41.93747 / 9.41622 37 / 37 nm
O LFKF APT - 0 / 0 41.50206 / 9.09696 29 / 66 nm Figari Sud Corse

Altitude Profile

Advertisement - Login to hide

LFKB

Details ICAO LFKB (BIA)
Name Bastia Poretta
Region France
Timezone Europe/Paris (UTC+2.0)
Stats Elevation 24 ft / 7 m (AMSL)
Location 42.552600° 9.483750°
Runways 1
Magnetic Variation 2.894° E

METAR

LFKB 270730Z AUTO 21004KT CAVOK 25/18 Q1017 BECMG 11010KT

Decode

TAF

TAF LFKB 270200Z 2703/2803 23004KT 9999 SCT020 TX27/2712Z TN17/2803Z TEMPO 2703/2715 BKN020 BECMG 2708/2710 11010KT BECMG 2719/2721 24004KT

Decode

Departure Runways

ID Width Length Bearing (true/mag) Surface Threshold Overrun Markings Lighting
16 148 ft / 45 m 8,273 ft / 2,522 m 162.83° / 159.94° ASPHALT 0 ft / 0 m 102 ft / 31 m APP CENTERLINE EDGE THRESHOLD TDZ REIL-OMNI
34 148 ft / 45 m 8,273 ft / 2,522 m 342.84° / 339.95° ASPHALT 0 ft / 0 m 0 ft / 0 m PREC-APP CENTERLINE EDGE THRESHOLD TDZ REIL-OMNI

LFKF

Details ICAO LFKF (FSC)
Name Figari Sud Corse
Region France
Timezone Europe/Paris (UTC+2.0)
Stats Elevation 86 ft / 26 m (AMSL)
Location 41.502300° 9.096970°
Runways 1
Magnetic Variation 2.779° E

METAR

LFKF 270730Z AUTO VRB02KT CAVOK 24/21 Q1017 TEMPO BKN013 BECMG 25012KT

Decode

TAF

TAF AMD LFKF 270703Z 2707/2803 VRB03KT 9999 FEW023 PROB40 TEMPO 2707/2710 BKN013 BECMG 2709/2711 25012KT BECMG 2717/2719 29012KT

Decode

Destination Runways

ID Width Length Bearing (true/mag) Surface Threshold Overrun Markings Lighting
05 148 ft / 45 m 8,144 ft / 2,482 m 47.43° / 44.65° CONCRETE 0 ft / 0 m 0 ft / 0 m APP CENTERLINE EDGE THRESHOLD
23 148 ft / 45 m 8,144 ft / 2,482 m 227.45° / 224.67° CONCRETE 0 ft / 0 m 0 ft / 0 m PREC-APP CENTERLINE EDGE THRESHOLD

Approach Navaids

Runway Type Ident Frequency Range Bearing (true/mag) Slope Elevation
23 DME GR 110.50 MHz 18 nm / 33 km - - 131 ft / 40 m (AMSL)
23 GS GR 110.50 MHz 10 nm / 19 km 227.44° / 224.66 ° 3.50° 86 ft / 26 m (AMSL)
23 LOC-ILS GR 110.50 MHz 18 nm / 33 km 227.44° / 224.66 ° - 86 ft / 26 m (AMSL)
23 OM OM - - 227.43° / 224.65 ° - 87 ft / 27 m (AMSL)

Popular Alternatives